QTR8033 EBLG-ENGM

Flight info

Callsign QTR8033
Flight time 1h 27m
Altitude 36000
Route BUB M624 NIK L191 VICOT DCT JUIST/N0474F370 DCT DOROR DCT RASVI DCT PIPEX M609 RIPAM
Aircraft B77L/H-SDE1E2E3FGHIJ2J3J4J5M1RWXY/LB1D1

Departure

Time 2026-05-05 16:16
Airport Liège Airport (EBLG)

Arrival

Time 2026-05-05 17:43
Airport Oslo-Gardermoen International Airport (ENGM)
Time Latitude Longitude Altitude Speed Heading
2026-05-05 15:53 50.63537 5.44647 621 ft 0 kts 135°
2026-05-05 16:06 50.63552 5.44625 634 ft 4 kts 142°
2026-05-05 16:06 50.63574 5.44603 634 ft 4 kts 150°
2026-05-05 16:07 50.63597 5.44580 634 ft 4 kts 150°
2026-05-05 16:07 50.63612 5.44570 634 ft 2 kts 224°
2026-05-05 16:07 50.63613 5.44571 634 ft 1 kts 225°
2026-05-05 16:13 50.63598 5.44548 628 ft 5 kts 224°
2026-05-05 16:13 50.63541 5.44460 634 ft 14 kts 224°
2026-05-05 16:13 50.63473 5.44354 641 ft 14 kts 225°
2026-05-05 16:14 50.63339 5.44139 647 ft 14 kts 226°
2026-05-05 16:14 50.63205 5.43924 646 ft 14 kts 240°
2026-05-05 16:15 50.63367 5.43874 648 ft 36 kts 21°
2026-05-05 16:15 50.64283 5.45261 640 ft 180 kts 45°
2026-05-05 16:16 50.66193 5.48207 2908 ft 195 kts 44°
2026-05-05 16:16 50.68192 5.51405 4307 ft 218 kts 46°
2026-05-05 16:17 50.70408 5.54967 5726 ft 234 kts 46°
2026-05-05 16:17 50.71599 5.56763 6010 ft 241 kts 35°
2026-05-05 16:18 50.74765 5.56671 6118 ft 245 kts 320°
2026-05-05 16:18 50.75815 5.54563 6812 ft 253 kts 296°
2026-05-05 16:18 50.76915 5.48862 8163 ft 282 kts 284°
2026-05-05 16:19 50.77408 5.45886 9102 ft 287 kts 285°
2026-05-05 16:19 50.77935 5.42765 10065 ft 291 kts 284°
2026-05-05 16:19 50.78887 5.36123 10904 ft 339 kts 282°
2026-05-05 16:20 50.79975 5.28288 11789 ft 382 kts 282°
2026-05-05 16:20 50.81154 5.19957 13742 ft 392 kts 282°
2026-05-05 16:21 50.83102 5.11917 15056 ft 405 kts 312°
2026-05-05 16:22 50.89952 5.07683 17290 ft 415 kts
2026-05-05 16:22 50.95605 5.09697 18845 ft 425 kts 22°
2026-05-05 16:23 51.01125 5.13449 20247 ft 437 kts 25°
2026-05-05 16:23 51.03919 5.15412 20944 ft 441 kts 24°
2026-05-05 16:23 51.09622 5.19334 22302 ft 452 kts 24°
2026-05-05 16:24 51.12543 5.21297 22936 ft 458 kts 23°
2026-05-05 16:24 51.15500 5.23264 23524 ft 464 kts 23°
2026-05-05 16:24 51.21544 5.27264 24566 ft 475 kts 23°
2026-05-05 16:25 51.24598 5.29284 25188 ft 477 kts 23°
2026-05-05 16:25 51.30785 5.33386 26283 ft 485 kts 23°
2026-05-05 16:25 51.33921 5.35473 26827 ft 490 kts 23°
2026-05-05 16:26 51.40259 5.39700 27897 ft 497 kts 23°
2026-05-05 16:26 51.46686 5.44002 28888 ft 505 kts 23°
2026-05-05 16:27 51.49953 5.46194 29213 ft 512 kts 23°
2026-05-05 16:27 51.53256 5.48413 29625 ft 516 kts 23°
2026-05-05 16:27 51.56565 5.50639 30208 ft 514 kts 23°
2026-05-05 16:27 51.59815 5.52829 30824 ft 511 kts 23°
2026-05-05 16:28 51.63085 5.55037 31427 ft 509 kts 23°
2026-05-05 16:28 51.66347 5.57242 31948 ft 508 kts 23°
2026-05-05 16:28 51.69611 5.59453 32396 ft 509 kts 23°
2026-05-05 16:28 51.72880 5.61670 32742 ft 512 kts 23°
2026-05-05 16:29 51.76164 5.63901 33209 ft 511 kts 23°
2026-05-05 16:29 51.79439 5.66129 33743 ft 509 kts 23°
2026-05-05 16:29 51.82696 5.68349 34227 ft 507 kts 23°
2026-05-05 16:29 51.85943 5.70565 34636 ft 506 kts 23°
2026-05-05 16:30 51.89187 5.72783 35010 ft 506 kts 22°
2026-05-05 16:30 51.92431 5.75004 35392 ft 505 kts 22°
2026-05-05 16:30 51.95663 5.77221 35783 ft 504 kts 22°
2026-05-05 16:30 51.98903 5.79447 35917 ft 509 kts 22°
2026-05-05 16:31 52.05432 5.83942 35873 ft 506 kts 22°
2026-05-05 16:31 52.11826 5.88358 35879 ft 501 kts 22°
2026-05-05 16:32 52.18237 5.92801 35879 ft 501 kts 22°
2026-05-05 16:32 52.24661 5.97266 35896 ft 502 kts 22°
2026-05-05 16:33 52.31091 6.01749 35901 ft 503 kts 22°
2026-05-05 16:33 52.37546 6.06263 35914 ft 505 kts 22°
2026-05-05 16:34 52.44022 6.10808 35907 ft 506 kts 22°
2026-05-05 16:34 52.50506 6.15373 35907 ft 507 kts 22°
2026-05-05 16:35 52.57002 6.19961 35912 ft 508 kts 22°
2026-05-05 16:35 52.63451 6.24531 35926 ft 508 kts 21°
2026-05-05 16:36 52.69936 6.29140 35918 ft 507 kts 22°
2026-05-05 16:36 52.76418 6.33762 35920 ft 507 kts 22°
2026-05-05 16:37 52.82881 6.38387 35920 ft 506 kts 22°
2026-05-05 16:37 52.89349 6.43030 35929 ft 507 kts 21°
2026-05-05 16:38 52.95825 6.47693 35930 ft 507 kts 22°
2026-05-05 16:38 53.02306 6.52375 35930 ft 508 kts 22°
2026-05-05 16:39 53.08793 6.57078 35953 ft 509 kts 21°
2026-05-05 16:39 53.15301 6.61811 35941 ft 511 kts 21°
2026-05-05 16:40 53.21755 6.66520 35929 ft 512 kts 21°
2026-05-05 16:40 53.28290 6.71305 35941 ft 512 kts 21°
2026-05-05 16:41 53.34816 6.76100 35940 ft 512 kts 21°
2026-05-05 16:41 53.41344 6.80913 35939 ft 512 kts 21°
2026-05-05 16:42 53.47865 6.85735 35940 ft 512 kts 21°
2026-05-05 16:42 53.54433 6.90298 35958 ft 509 kts 15°
2026-05-05 16:43 53.61309 6.92959 35928 ft 504 kts
2026-05-05 16:43 53.68296 6.94064 35943 ft 503 kts
2026-05-05 16:44 53.75271 6.95060 35943 ft 504 kts
2026-05-05 16:44 53.82261 6.96124 35953 ft 505 kts
2026-05-05 16:45 53.89212 6.97232 35945 ft 505 kts
2026-05-05 16:45 53.96210 6.98363 35944 ft 505 kts
2026-05-05 16:46 54.03198 6.99494 35943 ft 504 kts
2026-05-05 16:46 54.10183 7.00624 35959 ft 503 kts
2026-05-05 16:47 54.17153 7.01756 35948 ft 502 kts
2026-05-05 16:47 54.24095 7.02886 35948 ft 500 kts
2026-05-05 16:48 54.31021 7.04017 35977 ft 499 kts
2026-05-05 16:48 54.37924 7.05149 35961 ft 497 kts
2026-05-05 16:49 54.44794 7.06280 35953 ft 495 kts
2026-05-05 16:49 54.51636 7.07409 35951 ft 493 kts
2026-05-05 16:50 54.58469 7.08539 35977 ft 492 kts
2026-05-05 16:50 54.65287 7.09672 35968 ft 492 kts
2026-05-05 16:51 54.72054 7.10800 35967 ft 491 kts
2026-05-05 16:51 54.78863 7.11939 35966 ft 491 kts
2026-05-05 16:52 54.85668 7.13081 35967 ft 492 kts
2026-05-05 16:52 54.92490 7.14230 35963 ft 492 kts
2026-05-05 16:53 54.99304 7.15395 35969 ft 492 kts
2026-05-05 16:53 55.06065 7.17547 35984 ft 494 kts
2026-05-05 16:54 55.12749 7.20106 35980 ft 495 kts
2026-05-05 16:54 55.19486 7.22680 35971 ft 495 kts
2026-05-05 16:55 55.26235 7.25211 35974 ft 495 kts
2026-05-05 16:55 55.32977 7.27724 35994 ft 496 kts
2026-05-05 16:56 55.39737 7.30249 35975 ft 497 kts
2026-05-05 16:56 55.46495 7.32785 35973 ft 497 kts
2026-05-05 16:57 55.53266 7.35338 35970 ft 497 kts
2026-05-05 16:57 55.59986 7.37880 35983 ft 497 kts
2026-05-05 16:58 55.66743 7.40445 35981 ft 497 kts
2026-05-05 16:58 55.73516 7.43025 35981 ft 497 kts
2026-05-05 16:59 55.80268 7.45606 35983 ft 497 kts
2026-05-05 16:59 55.87031 7.48200 35987 ft 496 kts
2026-05-05 17:00 55.93784 7.50800 35987 ft 496 kts
2026-05-05 17:00 56.00546 7.53414 35987 ft 496 kts
2026-05-05 17:01 56.07293 7.56030 36001 ft 496 kts
2026-05-05 17:01 56.14050 7.58660 35992 ft 497 kts
2026-05-05 17:02 56.20811 7.61300 35987 ft 496 kts
2026-05-05 17:02 56.27509 7.63926 35984 ft 496 kts
2026-05-05 17:03 56.34252 7.66578 36022 ft 496 kts
2026-05-05 17:03 56.40992 7.69240 35988 ft 496 kts
2026-05-05 17:04 56.47726 7.71908 35988 ft 495 kts
2026-05-05 17:04 56.54453 7.74583 35987 ft 494 kts
2026-05-05 17:05 56.61172 7.77265 36019 ft 494 kts
2026-05-05 17:05 56.67900 7.79960 35991 ft 494 kts
2026-05-05 17:06 56.74618 7.82661 35988 ft 494 kts
2026-05-05 17:06 56.81341 7.85374 35987 ft 494 kts
2026-05-05 17:07 56.88052 7.88093 36024 ft 494 kts
2026-05-05 17:07 56.94729 7.90807 35995 ft 495 kts
2026-05-05 17:08 57.01450 7.93549 35982 ft 495 kts
2026-05-05 17:08 57.08166 7.96300 35976 ft 494 kts
2026-05-05 17:09 57.14879 7.99060 35996 ft 494 kts
2026-05-05 17:09 57.20507 8.01382 35980 ft 494 kts
2026-05-05 17:10 57.27216 8.04158 35969 ft 494 kts
2026-05-05 17:10 57.33814 8.07641 35973 ft 498 kts 13°
2026-05-05 17:11 57.40382 8.11740 36004 ft 498 kts 13°
2026-05-05 17:11 57.46958 8.15873 35960 ft 498 kts 12°
2026-05-05 17:12 57.53527 8.19954 35956 ft 498 kts 12°
2026-05-05 17:12 57.60110 8.24027 35941 ft 498 kts 12°
2026-05-05 17:13 57.66676 8.28101 35987 ft 498 kts 12°
2026-05-05 17:13 57.73256 8.32201 35950 ft 498 kts 12°
2026-05-05 17:14 57.79831 8.36318 35931 ft 498 kts 12°
2026-05-05 17:14 57.86403 8.40449 35932 ft 498 kts 12°
2026-05-05 17:15 57.92973 8.44595 35971 ft 498 kts 12°
2026-05-05 17:15 57.99545 8.48756 35932 ft 499 kts 12°
2026-05-05 17:16 58.06124 8.52940 35925 ft 499 kts 12°
2026-05-05 17:16 58.12663 8.57114 35907 ft 499 kts 12°
2026-05-05 17:17 58.19241 8.61330 35955 ft 499 kts 12°
2026-05-05 17:17 58.25869 8.65593 35906 ft 500 kts 12°
2026-05-05 17:18 58.32414 8.69821 35904 ft 500 kts 12°
2026-05-05 17:18 58.38999 8.74091 35895 ft 500 kts 12°
2026-05-05 17:19 58.45582 8.78376 35888 ft 499 kts 12°
2026-05-05 17:19 58.48849 8.80512 35769 ft 497 kts 12°
2026-05-05 17:19 58.52127 8.82656 35502 ft 498 kts 12°
2026-05-05 17:20 58.55402 8.84802 35230 ft 498 kts 12°
2026-05-05 17:20 58.58688 8.86959 34949 ft 499 kts 12°
2026-05-05 17:20 58.61971 8.89119 34698 ft 499 kts 12°
2026-05-05 17:20 58.65258 8.91287 34445 ft 499 kts 12°
2026-05-05 17:21 58.68538 8.93456 34201 ft 498 kts 12°
2026-05-05 17:21 58.71821 8.95630 33946 ft 499 kts 12°
2026-05-05 17:21 58.75098 8.97803 33536 ft 497 kts 12°
2026-05-05 17:22 58.81583 9.02273 32940 ft 499 kts 16°
2026-05-05 17:22 58.84723 9.05237 32543 ft 506 kts 22°
2026-05-05 17:22 58.87737 9.08767 32278 ft 508 kts 28°
2026-05-05 17:22 58.90570 9.12883 32085 ft 509 kts 32°
2026-05-05 17:23 58.93327 9.17183 31834 ft 508 kts 33°
2026-05-05 17:23 58.96055 9.21499 31604 ft 506 kts 33°
2026-05-05 17:23 58.98778 9.25794 31422 ft 503 kts 33°
2026-05-05 17:23 59.01502 9.30057 31094 ft 504 kts 32°
2026-05-05 17:24 59.04232 9.34300 30799 ft 503 kts 32°
2026-05-05 17:24 59.06963 9.38536 30562 ft 501 kts 32°
2026-05-05 17:24 59.09679 9.42753 30378 ft 498 kts 32°
2026-05-05 17:24 59.12381 9.46959 30169 ft 496 kts 32°
2026-05-05 17:25 59.15073 9.51159 29935 ft 494 kts 32°
2026-05-05 17:25 59.16847 9.53935 29745 ft 494 kts 32°
2026-05-05 17:25 59.20488 9.59319 29349 ft 487 kts 26°
2026-05-05 17:25 59.23315 9.62931 29079 ft 484 kts 25°
2026-05-05 17:26 59.26141 9.66470 28868 ft 482 kts 25°
2026-05-05 17:26 59.28957 9.70034 28582 ft 482 kts 25°
2026-05-05 17:26 59.31758 9.73633 28318 ft 480 kts 25°
2026-05-05 17:26 59.34478 9.77297 28101 ft 482 kts 29°
2026-05-05 17:27 59.37122 9.81368 27834 ft 483 kts 32°
2026-05-05 17:27 59.39698 9.85603 27589 ft 483 kts 33°
2026-05-05 17:27 59.42260 9.89871 27339 ft 481 kts 33°
2026-05-05 17:27 59.44800 9.94065 27115 ft 479 kts 32°
2026-05-05 17:28 59.47370 9.98251 26858 ft 478 kts 32°
2026-05-05 17:28 59.49934 10.02386 26598 ft 477 kts 32°
2026-05-05 17:28 59.52494 10.06502 26366 ft 476 kts 31°
2026-05-05 17:28 59.55068 10.10637 26047 ft 477 kts 31°
2026-05-05 17:29 59.57632 10.14771 25815 ft 476 kts 31°
2026-05-05 17:29 59.60184 10.18905 25624 ft 472 kts 31°
2026-05-05 17:29 59.62644 10.22920 25401 ft 444 kts 31°
2026-05-05 17:29 59.64972 10.26717 24817 ft 426 kts 30°
2026-05-05 17:30 59.67225 10.30375 24187 ft 412 kts 30°
2026-05-05 17:30 59.69421 10.33881 23556 ft 395 kts 24°
2026-05-05 17:30 59.71766 10.36125 22835 ft 355 kts
2026-05-05 17:30 59.74077 10.36575 22151 ft 318 kts 342°
2026-05-05 17:31 59.76184 10.35877 21487 ft 300 kts 333°
2026-05-05 17:31 59.78154 10.34687 20789 ft 292 kts 325°
2026-05-05 17:31 59.79872 10.32813 20007 ft 272 kts 309°
2026-05-05 17:31 59.81277 10.30369 19294 ft 267 kts 307°
2026-05-05 17:32 59.82776 10.28125 18541 ft 279 kts 321°
2026-05-05 17:32 59.84631 10.26717 17834 ft 286 kts 328°
2026-05-05 17:32 59.86495 10.25429 17000 ft 281 kts 327°
2026-05-05 17:32 59.88302 10.24111 16206 ft 275 kts 327°
2026-05-05 17:33 59.90079 10.22798 15409 ft 270 kts 328°
2026-05-05 17:33 59.91807 10.21563 14677 ft 268 kts 333°
2026-05-05 17:33 59.93710 10.21204 13884 ft 286 kts 357°
2026-05-05 17:33 59.95654 10.22378 13131 ft 299 kts 18°
2026-05-05 17:34 59.97385 10.24764 12442 ft 307 kts 36°
2026-05-05 17:34 59.98706 10.28096 11833 ft 307 kts 56°
2026-05-05 17:34 59.99514 10.31985 11312 ft 301 kts 75°
2026-05-05 17:34 59.99597 10.36115 10645 ft 296 kts 97°
2026-05-05 17:35 59.99373 10.40175 10014 ft 291 kts 97°
2026-05-05 17:35 59.99159 10.44166 9374 ft 287 kts 96°
2026-05-05 17:35 59.98953 10.48106 8683 ft 283 kts 96°
2026-05-05 17:35 59.98754 10.51995 8033 ft 279 kts 96°
2026-05-05 17:36 59.98563 10.55831 7407 ft 275 kts 96°
2026-05-05 17:36 59.98379 10.59581 6734 ft 271 kts 96°
2026-05-05 17:36 59.98195 10.63313 6066 ft 269 kts 96°
2026-05-05 17:36 59.98016 10.67012 5608 ft 266 kts 97°
2026-05-05 17:37 59.97838 10.70632 5369 ft 261 kts 97°
2026-05-05 17:37 59.97720 10.73003 5229 ft 258 kts 97°
2026-05-05 17:37 59.97478 10.77837 5026 ft 265 kts 98°
2026-05-05 17:37 59.97427 10.81499 4855 ft 267 kts 82°
2026-05-05 17:38 59.97834 10.85102 4606 ft 269 kts 73°
2026-05-05 17:38 59.98326 10.88643 4407 ft 266 kts 73°
2026-05-05 17:38 59.98801 10.92181 4272 ft 257 kts 73°
2026-05-05 17:38 59.99528 10.95282 4106 ft 248 kts 43°
2026-05-05 17:39 60.00877 10.97136 4166 ft 229 kts 15°
2026-05-05 17:39 60.02375 10.98152 4117 ft 227 kts 10°
2026-05-05 17:39 60.03908 10.99043 3750 ft 230 kts
2026-05-05 17:39 60.05428 10.99900 3484 ft 225 kts
2026-05-05 17:40 60.06929 11.00755 3149 ft 220 kts
2026-05-05 17:40 60.08360 11.01571 2854 ft 207 kts
2026-05-05 17:40 60.09707 11.02341 2613 ft 198 kts
2026-05-05 17:40 60.11011 11.03084 2329 ft 194 kts
2026-05-05 17:41 60.12314 11.03831 2059 ft 192 kts
2026-05-05 17:41 60.13568 11.04548 1818 ft 184 kts
2026-05-05 17:41 60.14800 11.05253 1535 ft 180 kts
2026-05-05 17:41 60.15959 11.05921 1208 ft 168 kts 11°
2026-05-05 17:42 60.17034 11.06544 979 ft 157 kts
2026-05-05 17:42 60.18089 11.07135 789 ft 157 kts 13°
2026-05-05 17:42 60.19120 11.07721 672 ft 147 kts 16°
2026-05-05 17:42 60.19986 11.08226 680 ft 109 kts 16°
2026-05-05 17:43 60.20565 11.08561 681 ft 65 kts 16°
2026-05-05 17:43 60.20871 11.08738 679 ft 37 kts 16°
2026-05-05 17:43 60.21112 11.08878 680 ft 35 kts 16°
2026-05-05 17:43 60.21341 11.09011 682 ft 33 kts 17°
2026-05-05 17:44 60.21522 11.09119 684 ft 16 kts 19°
2026-05-05 17:44 60.21577 11.09282 684 ft 16 kts 96°
2026-05-05 17:44 60.21548 11.09498 682 ft 16 kts 107°
2026-05-05 17:44 60.21475 11.09634 688 ft 17 kts 175°
2026-05-05 17:45 60.21326 11.09568 686 ft 23 kts 196°
2026-05-05 17:45 60.21172 11.09479 685 ft 23 kts 195°
2026-05-05 17:45 60.21016 11.09388 684 ft 23 kts 197°
2026-05-05 17:45 60.20860 11.09298 684 ft 23 kts 195°
2026-05-05 17:46 60.20703 11.09210 682 ft 23 kts 195°
2026-05-05 17:46 60.20547 11.09121 680 ft 23 kts 197°
2026-05-05 17:46 60.20378 11.09019 682 ft 27 kts 196°
2026-05-05 17:46 60.20195 11.08915 681 ft 27 kts 195°
2026-05-05 17:47 60.20012 11.08808 680 ft 27 kts 196°
2026-05-05 17:47 60.19828 11.08703 677 ft 27 kts 195°
2026-05-05 17:47 60.19644 11.08599 677 ft 27 kts 196°
2026-05-05 17:47 60.19460 11.08493 677 ft 27 kts 195°
2026-05-05 17:48 60.19297 11.08396 679 ft 19 kts 196°
2026-05-05 17:48 60.19188 11.08333 678 ft 10 kts 195°
2026-05-05 17:48 60.19138 11.08423 677 ft 8 kts 111°
2026-05-05 17:48 60.19129 11.08477 675 ft 3 kts 107°
2026-05-05 17:49 60.19128 11.08487 676 ft 1 kts 107°
2026-05-05 17:49 60.19127 11.08493 677 ft 0 kts 107°